Hourly Data Report for October 27, 2016

All times are specified in Local Standard Time (LST). Add 1 hour to adjust for Daylight Saving Time where and when it is observed.

TORONTO INTL A
ONTARIO

43°40'36.000" N
79°37'50.000" W
173.40 m
6158731
71624
YYZ

Download Data

Hourly Data (October 2016)
Hourly Data Report for October 27, 2016
Temp Definition
°C
Dew Point Temp Definition
°C
Rel Hum Definition
%
Wind Dir Definition
10's deg

Wind Spd Definition
km/h
Visibility Definition
km
Stn Press Definition
kPa
Hmdx Definition


Wind Chill Definition


Weather Definition


TIME
00:00 Legend Double Dagger 4.2 0.2 75 10 26 14.5 100.63     Rain
01:00 Legend Double Dagger 3.5 1.2 85 9 17 14.5 100.55     Rain
02:00 Legend Double Dagger 2.9 1.3 89 8 12 16.1 100.46     Rain
03:00 Legend Double Dagger 3.8 2.3 90 10 22 16.1 100.34     Rain
04:00 Legend Double Dagger 3.7 2.4 91 11 25 9.7 100.20     Rain
05:00 Legend Double Dagger 3.6 2.4 92 10 36 24.1 100.09     Rain
06:00 Legend Double Dagger 4.0 3.0 93 8 23 8.1 99.94     Rain,Fog
07:00 Legend Double Dagger 4.7 3.7 93 9 26 9.7 99.86     Drizzle,Fog
08:00 Legend Double Dagger 5.0 3.5 90 10 23 9.7 99.76     Rain
09:00 Legend Double Dagger 4.9 3.6 91 10 20 16.1 99.65     Rain
10:00 Legend Double Dagger 5.1 3.9 92 9 17 19.3 99.56     Rain
11:00 Legend Double Dagger 5.2 4.2 93 7 13 2.4 99.50     Rain,Fog
12:00 Legend Double Dagger 4.0 3.3 95 36 21 3.6 99.45     Rain,Fog
13:00 Legend Double Dagger 3.6 2.9 95 1 27 8.1 99.40     Rain,Fog
14:00 Legend Double Dagger 2.4 1.5 94 2 34 9.7 99.35     Rain,Fog
15:00 Legend Double Dagger 1.7 0.4 91 36 27 12.9 99.41     Rain
16:00 Legend Double Dagger 1.2 -0.3 90 35 23 4.8 99.51     Drizzle,Fog
17:00 Legend Double Dagger 0.8 -0.4 92 35 27 8.1 99.60     Drizzle,Fog
18:00 Legend Double Dagger 1.0 -0.8 88 34 27 12.9 99.70     Snow
19:00 Legend Double Dagger 1.0 -0.5 90 32 26 24.1 99.80     Cloudy
20:00 Legend Double Dagger 0.9 -1.0 87 32 28 24.1 99.88     LegendNANA
21:00 Legend Double Dagger 0.8 -1.3 86 32 25 24.1 99.90     LegendNANA
22:00 Legend Double Dagger 0.9 -1.3 85 30 22 24.1 99.99     Cloudy
23:00 Legend Double Dagger 1.2 -1.5 82 30 20 24.1 99.98     LegendNANA

Notes on Data Quality.

Legend

  • E = Estimated
  • M = Missing
  • NA = Not Available
  • ‡ = Partner data that is not subject to review by the National Climate Archives
Date modified: